QPF
0.04 0.05 0.04 0.06 0.19 0.25 0.20 0.10 0.03 0.00 0.00 0.00 0.00 0.00 0.00 0.00 0.00 0.00 0.00 0.00 0.00 0.00 0.00 0.00 0.00 0.00 0.00 0.00 0.00 0.00 0.00 0.00 0.00 0.00 0.00 0.00 0.00 0.00 0.00 0.00 0.00 0.00 0.00
0.05 0.05 0.04 0.02 0.04 0.05 0.03 0.01 0.00 0.00 0.00 0.00 0.00 0.00 0.00 0.00 0.00 0.00 0.00 0.00 0.00 0.00 0.00 0.00 0.00 0.00 0.00 0.00 0.00 0.00 0.00 0.00 0.00 0.00 0.00 0.00 0.00 0.00 0.00 0.00 0.00 0.00 0.00
0.05 0.05 0.03 0.02 0.02 0.02 0.00 0.00 0.00 0.00 0.00 0.00 0.00 0.00 0.00 0.00 0.00 0.00 0.00 0.00 0.00 0.00 0.00 0.00 0.00 0.00 0.00 0.00 0.00 0.00 0.00 0.00 0.00 0.00 0.00 0.00 0.00 0.00 0.00 0.00 0.00 0.00 0.00
0.10 0.13 0.09 0.03 0.01 0.00 0.00 0.00 0.00 0.00 0.00 0.00 0.00 0.00 0.00 0.00 0.00 0.00 0.00 0.00 0.00 0.00 0.00 0.00 0.00 0.00 0.00 0.00 0.00 0.00 0.00 0.00 0.00 0.00 0.00 0.00 0.00 0.00 0.00 0.00 0.00 0.00 0.00
0.07 0.18 0.17 0.06 0.00 0.00 0.00 0.00 0.00 0.00 0.00 0.00 0.00 0.00 0.00 0.00 0.00 0.00 0.00 0.00 0.00 0.00 0.00 0.00 0.00 0.00 0.00 0.00 0.00 0.00 0.00 0.00 0.00 0.00 0.00 0.00 0.00 0.00 0.00 0.00 0.00 0.00 0.00
0.04 0.03 0.09 0.04 0.00 0.00 0.00 0.00 0.00 0.00 0.00 0.00 0.00 0.00 0.00 0.00 0.00 0.00 0.00 0.00 0.00 0.00 0.00 0.00 0.00 0.00 0.00 0.00 0.00 0.00 0.00 0.00 0.00 0.00 0.00 0.01 0.00 0.00 0.00 0.01 0.00 0.02 0.01
0.09 0.00 0.00 0.00 0.00 0.00 0.00 0.00 0.00 0.00 0.00 0.00 0.00 0.00 0.00 0.00 0.00 0.00 0.00 0.00 0.00 0.00 0.00 0.00 0.00 0.00 0.00 0.00 0.00 0.00 0.00 0.00 0.00 0.00 0.00 0.01 0.02 0.02 0.06 0.03 0.01 0.01 0.01
0.01 0.00 0.00 0.00 0.00 0.00 0.00 0.00 0.00 0.00 0.00 0.00 0.00 0.00 0.00 0.00 0.00 0.00 0.00 0.00 0.00 0.00 0.00 0.00 0.00 0.00 0.00 0.00 0.00 0.00 0.00 0.00 0.00 0.01 0.01 0.01 0.02 0.03 0.01 0.01 0.02 0.01 0.00
0.00 0.00 0.00 0.00 0.00 0.00 0.00 0.00 0.00 0.00 0.00 0.00 0.00 0.00 0.00 0.00 0.00 0.00 0.00 0.00 0.00 0.00 0.00 0.00 0.00 0.00 0.00 0.01 0.01 0.00 0.00 0.00 0.00 0.00 0.00 0.00 0.00 0.00 0.00 0.00 0.00 0.00 0.00
0.00 0.00 0.00 0.00 0.00 0.00 0.00 0.00 0.00 0.00 0.00 0.00 0.00 0.00 0.00 0.00 0.00 0.00 0.00 0.00 0.00 0.00 0.00 0.00 0.00 0.00 0.00 0.01 0.00 0.00 0.00 0.00 0.00 0.00 0.00 0.00 0.00 0.00 0.00 0.00 0.00 0.01 0.01
0.00 0.00 0.00 0.00 0.00 0.00 0.00 0.00 0.00 0.00 0.00 0.00 0.00 0.00 0.00 0.00 0.00 0.00 0.00 0.00 0.00 0.00 0.00 0.00 0.00 0.00 0.00 0.00 0.00 0.00 0.00 0.00 0.00 0.00 0.00 0.00 0.00 0.00 0.00 0.00 0.00 0.00 0.00
0.00 0.00 0.00 0.00 0.00 0.00 0.00 0.00 0.00 0.00 0.00 0.00 0.00 0.00 0.00 0.00 0.00 0.00 0.00 0.00 0.00 0.00 0.00 0.00 0.00 0.00 0.00 0.00 0.00 0.00 0.00 0.00 0.00 0.00 0.00 0.00 0.00 0.00 0.00 0.00 0.00 0.00 0.00
0.00 0.00 0.00 0.00 0.00 0.00 0.00 0.00 0.00 0.00 0.00 0.00 0.00 0.00 0.00 0.00 0.00 0.00 0.00 0.00 0.00 0.00 0.00 0.00 0.00 0.00 0.00 0.00 0.00 0.00 0.00 0.00 0.00 0.00 0.00 0.00 0.00 0.00 0.00 0.00 0.00 0.00 0.00
0.00 0.00 0.00 0.00 0.00 0.00 0.00 0.00 0.00 0.00 0.00 0.00 0.00 0.00 0.00 0.00 0.00 0.00 0.00 0.00 0.00 0.00 0.00 0.00 0.00 0.00 0.00 0.00 0.00 0.00 0.00 0.00 0.00 0.00 0.00 0.00 0.00 0.00 0.00 0.00 0.00 0.00 0.00
0.00 0.00 0.00 0.00 0.00 0.00 0.00 0.00 0.00 0.00 0.00 0.00 0.00 0.00 0.00 0.00 0.00 0.00 0.00 0.00 0.00 0.00 0.00 0.00 0.00 0.00 0.00 0.00 0.00 0.00 0.00 0.00 0.00 0.00 0.00 0.00 0.00 0.00 0.00 0.00 0.00 0.00 0.00
0.00 0.00 0.00 0.00 0.00 0.00 0.00 0.00 0.00 0.00 0.00 0.00 0.00 0.00 0.00 0.00 0.00 0.00 0.00 0.00 0.00 0.00 0.00 0.00 0.00 0.00 0.00 0.00 0.00 0.00 0.00 0.00 0.00 0.00 0.00 0.00 0.00 0.00 0.00 0.00 0.00 0.00 0.00
0.00 0.00 0.00 0.00 0.00 0.00 0.00 0.00 0.00 0.00 0.00 0.00 0.00 0.00 0.00 0.00 0.00 0.00 0.00 0.00 0.00 0.00 0.00 0.00 0.00 0.00 0.00 0.00 0.00 0.00 0.00 0.00 0.00 0.00 0.00 0.00 0.00 0.00 0.00 0.00 0.00 0.00 0.00
0.00 0.00 0.00 0.00 0.00 0.00 0.00 0.00 0.00 0.00 0.00 0.00 0.00 0.00 0.00 0.00 0.00 0.00 0.00 0.00 0.00 0.00 0.00 0.00 0.00 0.00 0.00 0.00 0.00 0.00 0.00 0.00 0.00 0.00 0.00 0.00 0.00 0.00 0.00 0.00 0.00 0.00 0.00
0.00 0.00 0.00 0.00 0.00 0.00 0.00 0.00 0.00 0.00 0.00 0.00 0.00 0.00 0.00 0.00 0.00 0.00 0.00 0.00 0.00 0.00 0.00 0.00 0.00 0.00 0.00 0.00 0.00 0.00 0.00 0.00 0.00 0.00 0.00 0.00 0.00 0.01 0.00 0.00 0.00 0.00 0.01
0.00 0.00 0.00 0.00 0.00 0.00 0.00 0.00 0.00 0.00 0.00 0.00 0.00 0.00 0.00 0.00 0.00 0.00 0.00 0.00 0.00 0.00 0.00 0.00 0.00 0.00 0.00 0.00 0.00 0.00 0.00 0.00 0.00 0.00 0.00 0.00 0.00 0.01 0.01 0.00 0.00 0.00 0.00
0.00 0.00 0.00 0.00 0.00 0.00 0.00 0.00 0.00 0.00 0.00 0.00 0.00 0.00 0.00 0.00 0.00 0.00 0.00 0.00 0.00 0.00 0.00 0.00 0.00 0.00 0.00 0.00 0.00 0.00 0.00 0.00 0.00 0.01 0.01 0.00 0.00 0.00 0.00 0.00 0.00 0.00 0.00
0.00 0.00 0.00 0.00 0.00 0.00 0.00 0.00 0.00 0.00 0.00 0.00 0.00 0.00 0.00 0.00 0.00 0.00 0.00 0.00 0.00 0.00 0.00 0.00 0.00 0.00 0.00 0.00 0.01 0.01 0.00 0.00 0.00 0.01 0.01 0.01 0.00 0.00 0.00 0.01 0.01 0.00 0.00
0.00 0.00 0.00 0.00 0.00 0.00 0.00 0.00 0.00 0.00 0.00 0.00 0.00 0.00 0.00 0.00 0.00 0.00 0.00 0.00 0.00 0.00 0.00 0.00 0.00 0.00 0.00 0.00 0.01 0.01 0.01 0.01 0.00 0.01 0.02 0.01 0.00 0.00 0.01 0.01 0.01 0.01 0.00
0.00 0.00 0.00 0.00 0.00 0.00 0.00 0.00 0.00 0.00 0.00 0.00 0.00 0.00 0.00 0.00 0.00 0.00 0.00 0.00 0.00 0.00 0.00 0.00 0.00 0.00 0.00 0.00 0.00 0.00 0.00 0.00 0.01 0.02 0.02 0.01 0.00 0.00 0.01 0.01 0.01 0.01 0.00
0.00 0.00 0.00 0.00 0.00 0.00 0.00 0.00 0.00 0.00 0.00 0.00 0.00 0.00 0.00 0.00 0.00 0.00 0.00 0.00 0.00 0.00 0.00 0.00 0.00 0.00 0.00 0.00 0.00 0.00 0.00 0.00 0.01 0.02 0.01 0.00 0.00 0.00 0.01 0.01 0.01 0.00 0.00
0.00 0.00 0.00 0.00 0.00 0.00 0.00 0.00 0.00 0.00 0.00 0.00 0.00 0.00 0.00 0.00 0.00 0.00 0.00 0.00 0.00 0.00 0.00 0.00 0.00 0.00 0.00 0.00 0.00 0.00 0.00 0.00 0.01 0.02 0.00 0.00 0.00 0.00 0.00 0.01 0.00 0.00 0.00
MSLP
1012.46 1013.60 1014.84 1015.56 1015.75 1016.79 1017.37 1019.13 1019.47 1019.94 1019.79 1020.65 1021.13 1021.97 1022.58 1023.00 1023.18 1023.37 1024.07 1024.60 1024.29 1024.70 1024.99 1025.13 1025.26 1025.22 1025.14 1025.12 1025.04 1025.25 1025.29 1025.39 1025.03 1023.88 1023.46 1023.17 1022.81 1022.45 1021.91 1021.44 1020.95 1020.35 1019.67
1012.42 1013.65 1014.78 1015.83 1016.85 1017.76 1018.30 1019.38 1019.30 1019.99 1020.51 1020.97 1021.82 1022.14 1022.78 1023.04 1023.44 1023.96 1024.45 1024.56 1024.72 1025.02 1025.37 1025.34 1025.37 1025.33 1025.29 1025.25 1025.25 1025.19 1025.11 1024.88 1024.78 1024.09 1023.52 1023.01 1022.62 1022.07 1021.61 1021.11 1020.39 1019.83 1019.29
1012.69 1013.95 1015.26 1016.21 1017.16 1017.82 1018.34 1018.96 1019.79 1020.72 1020.89 1021.34 1021.94 1022.64 1022.96 1023.65 1023.88 1024.26 1024.40 1024.90 1025.06 1025.41 1025.45 1025.62 1025.52 1025.38 1025.47 1025.26 1025.07 1024.96 1024.75 1024.50 1024.29 1024.08 1023.32 1022.73 1022.20 1021.72 1021.19 1020.63 1020.07 1019.47 1018.99
1013.28 1014.41 1015.70 1016.61 1017.29 1018.42 1018.85 1019.69 1020.16 1020.55 1021.60 1022.18 1022.17 1023.07 1023.34 1023.91 1024.03 1024.43 1024.86 1025.06 1025.31 1025.55 1025.79 1025.67 1025.64 1025.56 1025.20 1024.94 1024.77 1024.66 1024.36 1024.27 1024.01 1023.64 1023.02 1022.48 1022.09 1021.37 1021.03 1020.64 1019.87 1019.57 1018.73
1013.82 1014.88 1016.18 1017.08 1017.73 1018.77 1019.35 1020.16 1020.59 1021.26 1022.05 1022.46 1022.93 1023.25 1023.66 1023.75 1024.10 1024.54 1025.06 1025.47 1025.80 1025.93 1025.92 1025.92 1025.72 1025.15 1024.94 1024.71 1024.56 1024.27 1024.05 1023.92 1023.52 1023.18 1022.79 1022.20 1021.64 1021.20 1021.06 1020.45 1019.84 1019.08 1018.30
1014.55 1015.64 1016.39 1017.60 1018.36 1019.32 1020.18 1020.73 1021.03 1021.93 1022.69 1022.89 1023.14 1023.26 1023.67 1023.90 1024.12 1024.78 1025.42 1025.81 1025.98 1026.02 1026.21 1025.94 1025.77 1025.36 1025.29 1024.89 1024.33 1023.83 1023.58 1023.36 1023.16 1022.97 1022.67 1022.13 1021.62 1021.27 1020.69 1020.10 1019.52 1018.89 1018.12
1015.47 1016.35 1017.48 1018.23 1018.96 1019.23 1020.33 1021.26 1021.72 1022.55 1023.06 1023.14 1023.61 1023.88 1024.37 1024.43 1024.37 1025.00 1025.38 1025.99 1026.07 1026.15 1026.10 1025.97 1025.71 1025.44 1025.22 1024.95 1024.29 1023.93 1023.80 1023.28 1022.96 1022.79 1022.57 1022.25 1021.63 1021.32 1020.61 1019.99 1019.50 1018.93 1018.38
1016.97 1017.19 1017.95 1018.81 1019.58 1020.40 1020.94 1021.57 1022.28 1023.12 1023.47 1023.68 1024.38 1024.74 1024.93 1024.85 1024.64 1025.10 1025.34 1025.99 1026.07 1026.09 1026.04 1025.93 1025.60 1025.27 1025.10 1024.22 1023.97 1023.91 1023.67 1023.48 1023.32 1022.72 1022.58 1022.14 1021.51 1020.85 1020.36 1019.85 1019.40 1018.85 1018.21
1017.47 1018.23 1019.08 1019.36 1020.08 1020.91 1021.64 1022.27 1022.50 1023.19 1023.91 1024.53 1025.09 1025.32 1025.33 1025.51 1024.85 1025.09 1025.72 1026.02 1026.11 1026.08 1025.81 1025.60 1025.34 1025.10 1024.48 1023.63 1023.59 1023.71 1023.69 1023.36 1022.95 1022.51 1022.26 1021.79 1021.20 1020.73 1020.12 1019.75 1019.45 1019.08 1018.26
1018.11 1018.92 1019.40 1019.73 1020.61 1021.53 1022.21 1022.50 1023.06 1023.80 1024.64 1025.16 1025.52 1025.79 1025.84 1025.83 1025.32 1025.34 1025.75 1026.04 1025.93 1025.68 1025.65 1025.59 1025.06 1024.58 1023.92 1023.68 1023.51 1023.66 1023.39 1023.01 1022.85 1022.62 1022.35 1021.81 1021.32 1020.89 1020.20 1020.06 1019.83 1019.42 1018.79
1018.70 1019.39 1020.09 1020.77 1021.46 1022.05 1022.39 1022.86 1023.62 1024.47 1025.12 1025.64 1025.96 1026.15 1026.27 1026.15 1026.22 1025.58 1025.43 1025.47 1025.47 1025.52 1025.40 1025.18 1025.00 1024.53 1023.90 1023.65 1023.44 1023.40 1022.99 1022.53 1022.72 1022.56 1022.17 1021.67 1021.19 1020.79 1020.35 1019.92 1019.63 1019.47 1018.91
1019.50 1020.20 1021.03 1021.56 1021.95 1022.46 1022.92 1023.71 1024.35 1024.98 1025.53 1025.99 1026.38 1026.59 1026.61 1026.72 1026.04 1025.72 1025.39 1025.26 1025.09 1025.17 1025.10 1025.08 1024.99 1024.44 1024.14 1023.87 1023.69 1023.06 1022.76 1022.90 1022.87 1022.54 1022.10 1021.60 1021.11 1020.64 1020.24 1019.77 1019.27 1018.84 1018.43
1020.22 1020.95 1021.66 1022.15 1022.55 1022.95 1023.60 1024.36 1024.79 1025.21 1025.80 1026.29 1026.52 1026.73 1026.74 1026.49 1026.26 1025.73 1025.49 1025.33 1025.27 1025.11 1025.19 1025.13 1024.87 1024.59 1024.34 1024.17 1023.62 1023.34 1023.27 1023.18 1023.05 1022.66 1022.19 1021.68 1021.24 1020.66 1020.07 1019.44 1018.88 1018.32 1017.71
1020.75 1021.55 1022.10 1022.51 1023.23 1023.60 1023.87 1024.31 1024.96 1025.52 1025.81 1026.10 1026.41 1026.51 1026.40 1026.24 1026.01 1025.87 1025.78 1025.82 1025.52 1025.40 1025.41 1025.66 1025.07 1024.76 1024.50 1024.29 1023.95 1023.82 1023.60 1023.30 1023.05 1022.80 1022.26 1021.64 1021.02 1020.32 1019.86 1019.40 1018.98 1018.36 1017.70
1021.12 1021.82 1022.40 1022.77 1023.33 1023.94 1024.33 1024.60 1024.77 1025.04 1025.34 1025.73 1025.92 1025.91 1025.94 1025.90 1025.58 1025.33 1025.30 1025.37 1025.38 1025.24 1025.49 1025.45 1025.19 1024.99 1024.75 1024.45 1024.20 1023.94 1023.55 1023.19 1023.04 1022.72 1022.28 1021.70 1021.03 1020.43 1019.86 1019.34 1018.92 1018.54 1018.14
1021.45 1022.03 1022.54 1023.13 1023.77 1024.20 1024.48 1024.67 1024.54 1024.76 1024.89 1025.09 1025.23 1025.39 1025.60 1025.47 1025.38 1025.35 1025.24 1025.19 1025.33 1025.06 1025.54 1025.68 1025.47 1025.26 1025.13 1024.86 1024.49 1024.03 1023.65 1023.30 1023.01 1022.71 1022.31 1021.84 1021.21 1020.59 1019.99 1019.24 1018.95 1018.66 1018.18
1021.30 1022.03 1022.72 1023.33 1023.82 1024.28 1024.71 1024.99 1025.23 1025.26 1025.10 1025.21 1025.21 1025.25 1025.35 1025.51 1025.49 1025.33 1025.34 1025.33 1025.38 1025.36 1025.71 1025.72 1025.64 1025.45 1025.24 1024.92 1024.57 1024.20 1023.76 1023.31 1022.97 1022.70 1022.33 1021.71 1021.14 1020.60 1020.03 1019.44 1018.94 1018.49 1017.82
1021.63 1022.07 1022.76 1023.42 1023.96 1024.42 1024.80 1025.10 1025.27 1025.40 1025.57 1025.55 1025.41 1025.40 1025.49 1025.50 1025.41 1025.38 1025.32 1025.47 1025.60 1025.53 1025.71 1025.82 1025.74 1025.51 1025.19 1024.84 1024.42 1024.04 1023.57 1023.19 1022.84 1022.49 1022.09 1021.63 1021.09 1020.56 1019.98 1019.41 1018.91 1018.51 1017.87
1021.86 1022.47 1023.00 1023.54 1024.00 1024.38 1024.75 1025.07 1025.31 1025.53 1025.65 1025.73 1025.79 1025.71 1025.66 1025.51 1025.46 1025.47 1025.37 1025.57 1025.73 1025.67 1025.68 1025.74 1025.60 1025.41 1025.03 1024.62 1024.21 1023.86 1023.49 1023.16 1022.61 1022.39 1022.01 1021.37 1020.86 1020.44 1019.91 1019.40 1018.93 1018.36 1017.81
1022.00 1022.43 1022.98 1023.50 1023.91 1024.34 1024.69 1025.06 1025.36 1025.55 1025.72 1025.86 1025.89 1025.86 1025.57 1025.50 1025.62 1025.59 1025.51 1025.53 1025.51 1025.42 1025.32 1025.33 1025.23 1025.07 1024.75 1024.39 1023.99 1023.65 1023.25 1022.88 1022.51 1022.11 1021.69 1021.17 1020.78 1020.37 1019.86 1019.35 1018.90 1018.51 1018.11
1022.00 1022.41 1022.81 1023.35 1023.79 1024.21 1024.56 1024.91 1025.24 1025.50 1025.70 1025.76 1025.67 1025.39 1025.08 1025.28 1025.54 1025.47 1025.24 1025.23 1025.13 1025.04 1024.96 1024.87 1024.79 1024.59 1024.33 1024.04 1023.73 1023.40 1023.04 1022.67 1022.26 1021.79 1021.34 1020.95 1020.67 1020.26 1019.64 1019.13 1018.79 1018.42 1018.08
1021.87 1022.32 1022.79 1023.28 1023.72 1024.11 1024.43 1024.74 1025.15 1025.36 1025.51 1025.53 1025.37 1025.13 1024.85 1025.03 1025.09 1025.16 1025.14 1025.08 1024.93 1024.82 1024.65 1024.47 1024.40 1024.12 1023.90 1023.64 1023.34 1023.01 1022.70 1022.31 1021.81 1021.33 1020.85 1020.44 1020.31 1019.86 1019.35 1018.88 1018.56 1018.26 1017.95
1021.86 1022.38 1022.83 1023.27 1023.62 1023.84 1024.15 1024.55 1024.90 1025.11 1025.25 1025.26 1025.12 1025.07 1024.91 1024.91 1024.95 1025.02 1025.04 1024.92 1024.81 1024.66 1024.49 1024.39 1024.11 1023.77 1023.48 1023.16 1022.84 1022.58 1022.28 1021.81 1021.28 1020.76 1020.31 1020.03 1019.93 1019.60 1019.18 1018.83 1018.47 1018.17 1017.89
1021.94 1022.40 1022.81 1023.15 1023.52 1023.90 1024.14 1024.38 1024.67 1024.60 1024.80 1024.73 1024.79 1024.80 1024.66 1024.67 1024.67 1024.67 1024.63 1024.64 1024.49 1024.31 1024.17 1024.27 1023.90 1023.45 1023.04 1022.69 1022.38 1022.03 1021.67 1021.22 1020.74 1020.16 1019.60 1019.72 1019.66 1019.39 1019.08 1018.75 1018.40 1018.17 1017.89
1021.97 1022.41 1022.74 1023.09 1023.41 1023.70 1023.91 1024.09 1024.26 1024.26 1024.27 1024.28 1024.36 1024.39 1024.35 1024.31 1024.30 1024.24 1024.29 1024.28 1024.18 1023.94 1024.01 1024.02 1023.58 1023.05 1022.58 1022.15 1021.91 1021.55 1021.11 1020.49 1019.85 1019.48 1019.35 1019.62 1019.57 1019.26 1018.96 1018.61 1018.33 1018.13 1017.88
1022.05 1022.34 1022.63 1022.90 1023.19 1023.28 1023.32 1023.45 1023.61 1023.65 1023.70 1023.69 1023.75 1023.84 1023.90 1023.87 1023.80 1023.81 1023.83 1023.79 1023.72 1023.61 1023.87 1023.64 1023.17 1022.66 1022.06 1021.64 1021.34 1021.01 1020.37 1019.87 1019.44 1019.08 1019.30 1019.47 1019.33 1019.01 1018.66 1018.30 1018.11 1018.02 1017.87
Thickness
5558 5558 5557 5556 5560 5551 5551 5542 5544 5543 5547 5540 5537 5530 5526 5522 5521 5518 5508 5501 5503 5495 5488 5482 5476 5470 5463 5456 5449 5438 5428 5418 5413 5418 5408 5397 5388 5378 5368 5355 5342 5333 5325
5553 5551 5549 5547 5544 5543 5539 5533 5536 5535 5531 5531 5524 5523 5519 5515 5510 5502 5496 5493 5489 5483 5475 5469 5462 5456 5447 5440 5432 5423 5413 5404 5397 5397 5389 5379 5366 5355 5344 5333 5321 5310 5302
5546 5544 5540 5540 5537 5537 5535 5535 5532 5525 5525 5523 5518 5512 5510 5502 5497 5491 5488 5480 5476 5468 5462 5453 5447 5441 5432 5425 5417 5408 5400 5393 5382 5373 5370 5358 5346 5331 5323 5310 5301 5293 5284
5537 5537 5534 5534 5533 5526 5527 5523 5522 5520 5513 5509 5510 5501 5498 5490 5487 5481 5474 5469 5462 5455 5446 5441 5434 5426 5419 5411 5402 5393 5386 5375 5364 5353 5346 5337 5321 5312 5296 5287 5288 5273 5271
5531 5532 5528 5523 5524 5520 5518 5515 5514 5507 5500 5500 5496 5493 5487 5483 5476 5470 5462 5454 5446 5439 5433 5426 5419 5413 5403 5395 5388 5378 5367 5357 5346 5335 5325 5315 5305 5295 5280 5272 5266 5263 5259
5524 5522 5522 5515 5513 5511 5504 5504 5501 5497 5493 5490 5486 5485 5477 5473 5465 5456 5448 5440 5432 5426 5417 5411 5404 5395 5388 5379 5371 5362 5351 5339 5327 5315 5301 5293 5283 5271 5265 5258 5252 5249 5248
5513 5514 5508 5506 5504 5504 5498 5495 5493 5485 5482 5480 5475 5470 5462 5458 5452 5442 5435 5427 5421 5413 5406 5397 5389 5382 5374 5366 5357 5344 5330 5317 5303 5292 5282 5272 5264 5253 5250 5246 5241 5239 5236
5499 5501 5500 5498 5495 5492 5491 5486 5481 5474 5470 5470 5461 5454 5449 5445 5439 5430 5424 5416 5409 5400 5391 5385 5378 5368 5359 5353 5342 5328 5315 5302 5289 5278 5265 5257 5251 5246 5239 5236 5234 5234 5232
5494 5491 5488 5491 5487 5482 5478 5475 5474 5468 5461 5453 5446 5440 5436 5428 5427 5420 5412 5402 5394 5387 5381 5373 5365 5355 5348 5340 5332 5316 5300 5286 5274 5263 5254 5247 5241 5236 5233 5231 5227 5225 5227
5487 5485 5484 5484 5476 5471 5468 5467 5462 5455 5446 5439 5433 5426 5422 5416 5413 5407 5398 5389 5384 5378 5369 5359 5351 5343 5336 5326 5314 5297 5283 5274 5265 5257 5248 5242 5238 5234 5230 5225 5221 5219 5218
5480 5477 5474 5470 5466 5463 5461 5457 5450 5441 5434 5426 5419 5414 5409 5403 5396 5392 5388 5381 5374 5366 5357 5348 5339 5331 5322 5310 5295 5280 5272 5268 5256 5249 5243 5241 5238 5234 5230 5226 5222 5217 5217
5470 5467 5462 5459 5457 5453 5449 5442 5435 5427 5420 5414 5407 5400 5394 5389 5386 5382 5377 5370 5362 5353 5345 5336 5326 5316 5304 5291 5280 5273 5265 5255 5247 5243 5241 5239 5237 5233 5231 5228 5225 5223 5221
5461 5456 5451 5447 5445 5441 5435 5428 5423 5417 5409 5401 5395 5388 5383 5380 5376 5370 5363 5356 5348 5341 5330 5320 5310 5299 5286 5275 5269 5263 5254 5246 5240 5239 5237 5236 5234 5232 5231 5231 5229 5228 5227
5453 5447 5442 5438 5433 5430 5426 5420 5412 5403 5396 5391 5385 5379 5373 5368 5363 5358 5351 5343 5335 5327 5314 5302 5292 5282 5273 5266 5259 5251 5244 5240 5236 5234 5234 5234 5234 5233 5232 5231 5228 5228 5227
5443 5438 5434 5432 5426 5419 5413 5407 5402 5395 5389 5382 5376 5371 5364 5357 5353 5348 5341 5332 5322 5312 5300 5287 5277 5267 5259 5254 5247 5241 5238 5235 5231 5231 5230 5230 5231 5230 5230 5229 5226 5224 5223
5435 5430 5425 5419 5413 5407 5402 5395 5392 5386 5381 5375 5369 5362 5355 5349 5343 5335 5327 5318 5308 5299 5284 5272 5264 5256 5249 5242 5236 5233 5231 5229 5228 5227 5226 5226 5226 5226 5225 5225 5222 5216 5217
5429 5421 5415 5409 5402 5395 5389 5382 5375 5371 5368 5363 5358 5352 5345 5337 5329 5322 5313 5304 5294 5283 5269 5260 5252 5246 5239 5234 5229 5226 5225 5224 5224 5222 5222 5223 5223 5222 5222 5219 5218 5217 5218
5417 5412 5405 5397 5390 5384 5377 5371 5365 5359 5352 5349 5345 5339 5331 5323 5316 5308 5299 5288 5277 5268 5258 5249 5242 5237 5231 5227 5224 5222 5221 5221 5221 5220 5220 5220 5219 5218 5218 5216 5216 5214 5214
5405 5398 5391 5385 5379 5373 5367 5361 5355 5349 5342 5336 5329 5324 5317 5310 5303 5294 5286 5274 5262 5254 5246 5239 5233 5228 5224 5221 5220 5217 5216 5216 5219 5217 5216 5219 5218 5216 5214 5213 5213 5216 5216
5394 5389 5382 5375 5369 5363 5357 5350 5344 5337 5329 5323 5316 5310 5304 5296 5286 5278 5270 5261 5252 5245 5240 5233 5228 5222 5219 5217 5215 5214 5213 5214 5214 5215 5216 5216 5213 5212 5211 5211 5210 5208 5206
5384 5378 5373 5365 5359 5353 5346 5340 5334 5324 5317 5310 5305 5300 5297 5285 5272 5265 5259 5251 5244 5239 5234 5229 5223 5218 5216 5214 5212 5211 5211 5211 5212 5213 5214 5213 5209 5208 5208 5208 5206 5204 5203
5374 5368 5362 5355 5348 5342 5336 5329 5321 5313 5307 5299 5294 5288 5283 5273 5264 5255 5247 5241 5236 5231 5227 5223 5219 5216 5214 5212 5211 5210 5209 5210 5211 5211 5212 5212 5207 5208 5208 5206 5204 5202 5200
5363 5357 5351 5344 5338 5332 5325 5317 5308 5301 5294 5288 5280 5273 5266 5259 5251 5243 5237 5232 5228 5225 5220 5216 5214 5214 5214 5212 5211 5210 5209 5209 5211 5212 5212 5211 5208 5206 5205 5203 5202 5200 5199
5351 5345 5339 5333 5326 5317 5310 5303 5296 5291 5282 5276 5269 5261 5254 5247 5241 5235 5230 5226 5222 5219 5215 5211 5210 5211 5212 5213 5212 5211 5210 5211 5212 5212 5213 5210 5206 5205 5203 5202 5200 5198 5197
5339 5333 5327 5320 5313 5306 5301 5294 5286 5279 5272 5265 5257 5250 5243 5238 5232 5229 5224 5220 5216 5214 5210 5207 5207 5209 5211 5212 5212 5212 5212 5212 5213 5213 5213 5209 5205 5203 5202 5201 5199 5198 5196
5325 5320 5314 5307 5300 5295 5289 5283 5276 5269 5261 5255 5247 5240 5234 5230 5227 5223 5219 5215 5212 5209 5206 5203 5204 5206 5209 5210 5212 5212 5212 5213 5213 5213 5211 5208 5205 5204 5204 5203 5201 5199 5197